Year,Month,Day,Hour,Minute,Value (Times are PST for temperature in C)
2015,06,24,00,00,18.50
2015,06,24,00,01,18.40
2015,06,24,00,02,18.40
2015,06,24,00,03,18.40
2015,06,24,00,04,18.40
2015,06,24,00,05,18.30
2015,06,24,00,06,18.30
2015,06,24,00,07,18.30
2015,06,24,00,08,18.30
2015,06,24,00,09,18.30
2015,06,24,00,10,18.30
2015,06,24,00,11,18.30
2015,06,24,00,12,18.30
2015,06,24,00,13,18.20
2015,06,24,00,14,18.20
2015,06,24,00,15,18.20
2015,06,24,00,16,18.20
2015,06,24,00,17,18.20
2015,06,24,00,18,18.20
2015,06,24,00,19,18.20
2015,06,24,00,20,18.10
2015,06,24,00,21,18.10
2015,06,24,00,22,18.10
2015,06,24,00,23,18.10
2015,06,24,00,24,18.10
2015,06,24,00,25,18.10
2015,06,24,00,26,18.10
2015,06,24,00,27,18.10
2015,06,24,00,28,18.10
2015,06,24,00,29,18.10
2015,06,24,00,30,18.10
2015,06,24,00,31,18.10
2015,06,24,00,32,18.10
2015,06,24,00,33,18.00
2015,06,24,00,34,18.00
2015,06,24,00,35,17.90
2015,06,24,00,36,17.90
2015,06,24,00,37,17.90
2015,06,24,00,38,17.90
2015,06,24,00,39,17.90
2015,06,24,00,40,17.90
2015,06,24,00,41,17.90
2015,06,24,00,42,17.80
2015,06,24,00,43,17.80
2015,06,24,00,44,17.70
2015,06,24,00,45,17.70
2015,06,24,00,46,17.70
2015,06,24,00,47,17.70
2015,06,24,00,48,17.60
2015,06,24,00,49,17.60
2015,06,24,00,50,17.60
2015,06,24,00,51,17.60
2015,06,24,00,52,17.50
2015,06,24,00,53,17.50
2015,06,24,00,54,17.50
2015,06,24,00,55,17.50
2015,06,24,00,56,17.50
2015,06,24,00,57,17.40
2015,06,24,00,58,17.40
2015,06,24,00,59,17.40
2015,06,24,01,00,17.40
2015,06,24,01,01,17.40
2015,06,24,01,02,17.40
2015,06,24,01,03,17.40
2015,06,24,01,04,17.40
2015,06,24,01,05,17.40
2015,06,24,01,06,17.40
2015,06,24,01,07,17.40
2015,06,24,01,08,17.40
2015,06,24,01,09,17.40
2015,06,24,01,10,17.40
2015,06,24,01,11,17.40
2015,06,24,01,12,17.40
2015,06,24,01,13,17.40
2015,06,24,01,14,17.40
2015,06,24,01,15,17.30
2015,06,24,01,16,17.30
2015,06,24,01,17,17.20
2015,06,24,01,18,17.20
2015,06,24,01,19,17.20
2015,06,24,01,20,17.20
2015,06,24,01,21,17.10
2015,06,24,01,22,17.10
2015,06,24,01,23,17.10
2015,06,24,01,24,17.10
2015,06,24,01,25,17.10
2015,06,24,01,26,17.10
2015,06,24,01,27,17.10
2015,06,24,01,28,17.10
2015,06,24,01,29,17.00
2015,06,24,01,30,17.00
2015,06,24,01,31,17.00
2015,06,24,01,32,17.00
2015,06,24,01,33,16.90
2015,06,24,01,34,16.90
2015,06,24,01,35,16.80
2015,06,24,01,36,16.80
2015,06,24,01,37,16.80
2015,06,24,01,38,16.80
2015,06,24,01,39,16.70
2015,06,24,01,40,16.70
2015,06,24,01,41,16.70
2015,06,24,01,42,16.70
2015,06,24,01,43,16.70
2015,06,24,01,44,16.70
2015,06,24,01,45,16.70
2015,06,24,01,46,16.70
2015,06,24,01,47,16.70
2015,06,24,01,48,16.70
2015,06,24,01,49,16.70
2015,06,24,01,50,16.70
2015,06,24,01,51,16.70
2015,06,24,01,52,16.70
2015,06,24,01,53,16.70
2015,06,24,01,54,16.70
2015,06,24,01,55,16.70
2015,06,24,01,56,16.70
2015,06,24,01,57,16.60
2015,06,24,01,58,16.70
2015,06,24,01,59,16.60
2015,06,24,02,00,16.60
2015,06,24,02,01,16.60
2015,06,24,02,02,16.60
2015,06,24,02,03,16.60
2015,06,24,02,04,16.60
2015,06,24,02,05,16.60
2015,06,24,02,06,16.60
2015,06,24,02,07,16.50
2015,06,24,02,08,16.50
2015,06,24,02,09,16.50
2015,06,24,02,10,16.50
2015,06,24,02,11,16.50
2015,06,24,02,12,16.50
2015,06,24,02,13,16.40
2015,06,24,02,14,16.40
2015,06,24,02,15,16.40
2015,06,24,02,16,16.40
2015,06,24,02,17,16.40
2015,06,24,02,18,16.40
2015,06,24,02,19,16.40
2015,06,24,02,20,16.30
2015,06,24,02,21,16.30
2015,06,24,02,22,16.30
2015,06,24,02,23,16.30
2015,06,24,02,24,16.30
2015,06,24,02,25,16.30
2015,06,24,02,26,16.30
2015,06,24,02,27,16.30
2015,06,24,02,28,16.30
2015,06,24,02,29,16.30
2015,06,24,02,30,16.30
2015,06,24,02,31,16.30
2015,06,24,02,32,16.30
2015,06,24,02,33,16.30
2015,06,24,02,34,16.30
2015,06,24,02,35,16.30
2015,06,24,02,36,16.30
2015,06,24,02,37,16.30
2015,06,24,02,38,16.30
2015,06,24,02,39,16.30
2015,06,24,02,40,16.30
2015,06,24,02,41,16.30
2015,06,24,02,42,16.30
2015,06,24,02,43,16.30
2015,06,24,02,44,16.40
2015,06,24,02,45,16.40
2015,06,24,02,46,16.40
2015,06,24,02,47,16.40
2015,06,24,02,48,16.40
2015,06,24,02,49,16.40
2015,06,24,02,50,16.50
2015,06,24,02,51,16.50
2015,06,24,02,52,16.50
2015,06,24,02,53,16.50
2015,06,24,02,54,16.60
2015,06,24,02,55,16.60
2015,06,24,02,56,16.60
2015,06,24,02,57,16.60
2015,06,24,02,58,16.60
2015,06,24,02,59,16.60
2015,06,24,03,00,16.60
2015,06,24,03,01,16.50
2015,06,24,03,02,16.50
2015,06,24,03,03,16.50
2015,06,24,03,04,16.50
2015,06,24,03,05,16.40
2015,06,24,03,06,16.40
2015,06,24,03,07,16.40
2015,06,24,03,08,16.40
2015,06,24,03,09,16.40
2015,06,24,03,10,16.40
2015,06,24,03,11,16.40
2015,06,24,03,12,16.50
2015,06,24,03,13,16.50
2015,06,24,03,14,16.50
2015,06,24,03,15,16.50
2015,06,24,03,16,16.50
2015,06,24,03,17,16.50
2015,06,24,03,18,16.50
2015,06,24,03,19,16.50
2015,06,24,03,20,16.50
2015,06,24,03,21,16.50
2015,06,24,03,22,16.50
2015,06,24,03,23,16.50
2015,06,24,03,24,16.50
2015,06,24,03,25,16.50
2015,06,24,03,26,16.50
2015,06,24,03,27,16.50
2015,06,24,03,28,16.50
2015,06,24,03,29,16.50
2015,06,24,03,30,16.50
2015,06,24,03,31,16.60
2015,06,24,03,32,16.60
2015,06,24,03,33,16.60
2015,06,24,03,34,16.60
2015,06,24,03,35,16.60
2015,06,24,03,36,16.60
2015,06,24,03,37,16.60
2015,06,24,03,38,16.60
2015,06,24,03,39,16.60
2015,06,24,03,40,16.60
2015,06,24,03,41,16.60
2015,06,24,03,42,16.60
2015,06,24,03,43,16.60
2015,06,24,03,44,16.60
2015,06,24,03,45,16.60
2015,06,24,03,46,16.60
2015,06,24,03,47,16.60
2015,06,24,03,48,16.50
2015,06,24,03,49,16.50
2015,06,24,03,50,16.50
2015,06,24,03,51,16.50
2015,06,24,03,52,16.40
2015,06,24,03,53,16.40
2015,06,24,03,54,16.40
2015,06,24,03,55,16.30
2015,06,24,03,56,16.30
2015,06,24,03,57,16.30
2015,06,24,03,58,16.30
2015,06,24,03,59,16.20
2015,06,24,04,00,16.20
2015,06,24,04,01,16.20
2015,06,24,04,02,16.20
2015,06,24,04,03,16.20
2015,06,24,04,04,16.20
2015,06,24,04,05,16.20
2015,06,24,04,06,16.20
2015,06,24,04,07,16.20
2015,06,24,04,08,16.20
2015,06,24,04,09,16.20
2015,06,24,04,10,16.30
2015,06,24,04,11,16.30
2015,06,24,04,12,16.30
2015,06,24,04,13,16.30
2015,06,24,04,14,16.30
2015,06,24,04,15,16.30
2015,06,24,04,16,16.30
2015,06,24,04,17,16.30
2015,06,24,04,18,16.30
2015,06,24,04,19,16.30
2015,06,24,04,20,16.30
2015,06,24,04,21,16.30
2015,06,24,04,22,16.30
2015,06,24,04,23,16.30
2015,06,24,04,24,16.30
2015,06,24,04,25,16.30
2015,06,24,04,26,16.30
2015,06,24,04,27,16.40
2015,06,24,04,28,16.30
2015,06,24,04,29,16.40
2015,06,24,04,30,16.40
2015,06,24,04,31,16.40
2015,06,24,04,32,16.40
2015,06,24,04,33,16.30
2015,06,24,04,34,16.30
2015,06,24,04,35,16.30
2015,06,24,04,36,16.30
2015,06,24,04,37,16.30
2015,06,24,04,38,16.30
2015,06,24,04,39,16.30
2015,06,24,04,40,16.30
2015,06,24,04,41,16.30
2015,06,24,04,42,16.30
2015,06,24,04,43,16.30
2015,06,24,04,44,16.30
2015,06,24,04,45,16.30
2015,06,24,04,46,16.30
2015,06,24,04,47,16.30
2015,06,24,04,48,16.30
2015,06,24,04,49,16.30
2015,06,24,04,50,16.30
2015,06,24,04,51,16.30
2015,06,24,04,52,16.30
2015,06,24,04,53,16.30
2015,06,24,04,54,16.30
2015,06,24,04,55,16.30
2015,06,24,04,56,16.30
2015,06,24,04,57,16.30
2015,06,24,04,58,16.30
2015,06,24,04,59,16.30
2015,06,24,05,00,16.30
2015,06,24,05,01,16.30
2015,06,24,05,02,16.30
2015,06,24,05,03,16.30
2015,06,24,05,04,16.30
2015,06,24,05,05,16.30
2015,06,24,05,06,16.30
2015,06,24,05,07,16.30
2015,06,24,05,08,16.30
2015,06,24,05,09,16.30
2015,06,24,05,10,16.30
2015,06,24,05,11,16.30
2015,06,24,05,12,16.30
2015,06,24,05,13,16.30
2015,06,24,05,14,16.30
2015,06,24,05,15,16.30
2015,06,24,05,16,16.30
2015,06,24,05,17,16.20
2015,06,24,05,18,16.30
2015,06,24,05,19,16.30
2015,06,24,05,20,16.30
2015,06,24,05,21,16.30
2015,06,24,05,22,16.30
2015,06,24,05,23,16.30
2015,06,24,05,24,16.30
2015,06,24,05,25,16.30
2015,06,24,05,26,16.30
2015,06,24,05,27,16.30
2015,06,24,05,28,16.30
2015,06,24,05,29,16.30
2015,06,24,05,30,16.30
2015,06,24,05,31,16.30
2015,06,24,05,32,16.30
2015,06,24,05,33,16.30
2015,06,24,05,34,16.30
2015,06,24,05,35,16.30
2015,06,24,05,36,16.30
2015,06,24,05,37,16.30
2015,06,24,05,38,16.30
2015,06,24,05,39,16.30
2015,06,24,05,40,16.30
2015,06,24,05,41,16.30
2015,06,24,05,42,16.30
2015,06,24,05,43,16.30
2015,06,24,05,44,16.30
2015,06,24,05,45,16.30
2015,06,24,05,46,16.30
2015,06,24,05,47,16.30
2015,06,24,05,48,16.30
2015,06,24,05,49,16.30
2015,06,24,05,50,16.30
2015,06,24,05,51,16.30
2015,06,24,05,52,16.30
2015,06,24,05,53,16.30
2015,06,24,05,54,16.30
2015,06,24,05,55,16.30
2015,06,24,05,56,16.20
2015,06,24,05,57,16.20
2015,06,24,05,58,16.10
2015,06,24,05,59,16.10
2015,06,24,06,00,16.10
2015,06,24,06,01,16.00
2015,06,24,06,02,16.00
2015,06,24,06,03,15.90
2015,06,24,06,04,15.90
2015,06,24,06,05,15.90
2015,06,24,06,06,15.90
2015,06,24,06,07,15.80
2015,06,24,06,08,15.80
2015,06,24,06,09,15.80
2015,06,24,06,10,15.80
2015,06,24,06,11,15.70
2015,06,24,06,12,15.70
2015,06,24,06,13,15.70
2015,06,24,06,14,15.60
2015,06,24,06,15,15.60
2015,06,24,06,16,15.60
2015,06,24,06,17,15.60
2015,06,24,06,18,15.50
2015,06,24,06,19,15.50
2015,06,24,06,20,15.50
2015,06,24,06,21,15.40
2015,06,24,06,22,15.40
2015,06,24,06,23,15.40
2015,06,24,06,24,15.30
2015,06,24,06,25,15.30
2015,06,24,06,26,15.30
2015,06,24,06,27,15.20
2015,06,24,06,28,15.20
2015,06,24,06,29,15.10
2015,06,24,06,30,15.10
2015,06,24,06,31,15.10
2015,06,24,06,32,15.00
2015,06,24,06,33,15.00
2015,06,24,06,34,15.00
2015,06,24,06,35,15.00
2015,06,24,06,36,15.00
2015,06,24,06,37,15.00
2015,06,24,06,38,15.00
2015,06,24,06,39,15.00
2015,06,24,06,40,15.00
2015,06,24,06,41,15.00
2015,06,24,06,42,15.00
2015,06,24,06,43,15.10
2015,06,24,06,44,15.10
2015,06,24,06,45,15.10
2015,06,24,06,46,15.10
2015,06,24,06,47,15.10
2015,06,24,06,48,15.10
2015,06,24,06,49,15.10
2015,06,24,06,50,15.10
2015,06,24,06,51,15.10
2015,06,24,06,52,15.20
2015,06,24,06,53,15.20
2015,06,24,06,54,15.20
2015,06,24,06,55,15.20
2015,06,24,06,56,15.20
2015,06,24,06,57,15.20
2015,06,24,06,58,15.30
2015,06,24,06,59,15.30
2015,06,24,07,00,15.30
2015,06,24,07,01,15.30
2015,06,24,07,02,15.30
2015,06,24,07,03,15.30
2015,06,24,07,04,15.30
2015,06,24,07,05,15.30
2015,06,24,07,06,15.30
2015,06,24,07,07,15.40
2015,06,24,07,08,15.40
2015,06,24,07,09,15.50
2015,06,24,07,10,15.50
2015,06,24,07,11,15.60
2015,06,24,07,12,15.70
2015,06,24,07,13,15.80
2015,06,24,07,14,15.90
2015,06,24,07,15,16.00
2015,06,24,07,16,16.10
2015,06,24,07,17,16.20
2015,06,24,07,18,16.30
2015,06,24,07,19,16.40
2015,06,24,07,20,16.50
2015,06,24,07,21,16.50
2015,06,24,07,22,16.60
2015,06,24,07,23,16.60
2015,06,24,07,24,16.60
2015,06,24,07,25,16.60
2015,06,24,07,26,16.60
2015,06,24,07,27,16.60
2015,06,24,07,28,16.60
2015,06,24,07,29,16.70
2015,06,24,07,30,16.70
2015,06,24,07,31,16.70
2015,06,24,07,32,16.70
2015,06,24,07,33,16.70
2015,06,24,07,34,16.80
2015,06,24,07,35,16.80
2015,06,24,07,36,16.80
2015,06,24,07,37,16.80
2015,06,24,07,38,16.80
2015,06,24,07,39,16.80
2015,06,24,07,40,16.80
2015,06,24,07,41,16.90
2015,06,24,07,42,16.90
2015,06,24,07,43,16.90
2015,06,24,07,44,17.00
2015,06,24,07,45,17.00
2015,06,24,07,46,17.10
2015,06,24,07,47,17.10
2015,06,24,07,48,17.10
2015,06,24,07,49,17.20
2015,06,24,07,50,17.20
2015,06,24,07,51,17.30
2015,06,24,07,52,17.30
2015,06,24,07,53,17.30
2015,06,24,07,54,17.30
2015,06,24,07,55,17.30
2015,06,24,07,56,17.30
2015,06,24,07,57,17.20
2015,06,24,07,58,17.20
2015,06,24,07,59,17.10
2015,06,24,08,00,17.00
2015,06,24,08,01,16.90
2015,06,24,08,02,16.80
2015,06,24,08,03,16.70
2015,06,24,08,04,16.70
2015,06,24,08,05,16.70
2015,06,24,08,06,16.70
2015,06,24,08,07,16.60
2015,06,24,08,08,16.60
2015,06,24,08,09,16.60
2015,06,24,08,10,16.60
2015,06,24,08,11,16.50
2015,06,24,08,12,16.50
2015,06,24,08,13,16.50
2015,06,24,08,14,16.50
2015,06,24,08,15,16.50
2015,06,24,08,16,16.60
2015,06,24,08,17,16.60
2015,06,24,08,18,16.50
2015,06,24,08,19,16.50
2015,06,24,08,20,16.40
2015,06,24,08,21,16.40
2015,06,24,08,22,16.30
2015,06,24,08,23,16.20
2015,06,24,08,24,16.10
2015,06,24,08,25,16.10
2015,06,24,08,26,16.00
2015,06,24,08,27,16.00
2015,06,24,08,28,16.00
2015,06,24,08,29,16.00
2015,06,24,08,30,16.00
2015,06,24,08,31,16.10
2015,06,24,08,32,16.10
2015,06,24,08,33,16.10
2015,06,24,08,34,16.10
2015,06,24,08,35,16.20
2015,06,24,08,36,16.20
2015,06,24,08,37,16.30
2015,06,24,08,38,16.40
2015,06,24,08,39,16.50
2015,06,24,08,40,16.60
2015,06,24,08,41,16.70
2015,06,24,08,42,16.80
2015,06,24,08,43,16.80
2015,06,24,08,44,16.90
2015,06,24,08,45,16.90
2015,06,24,08,46,17.00
2015,06,24,08,47,17.00
2015,06,24,08,48,17.00
2015,06,24,08,49,17.00
2015,06,24,08,50,17.00
2015,06,24,08,51,17.00
2015,06,24,08,52,17.10
2015,06,24,08,53,17.10
2015,06,24,08,54,17.20
2015,06,24,08,55,17.20
2015,06,24,08,56,17.30
2015,06,24,08,57,17.30
2015,06,24,08,58,17.30
2015,06,24,08,59,17.30
2015,06,24,09,00,17.20
2015,06,24,09,01,17.20
2015,06,24,09,02,17.20
2015,06,24,09,03,17.30
2015,06,24,09,04,17.30
2015,06,24,09,05,17.30
2015,06,24,09,06,17.30
2015,06,24,09,07,17.30
2015,06,24,09,08,17.40
2015,06,24,09,09,17.40
2015,06,24,09,10,17.40
2015,06,24,09,11,17.40
2015,06,24,09,12,17.40
2015,06,24,09,13,17.40
2015,06,24,09,14,17.50
2015,06,24,09,15,17.50
2015,06,24,09,16,17.50
2015,06,24,09,17,17.50
2015,06,24,09,18,17.40
2015,06,24,09,19,17.40
2015,06,24,09,20,17.40
2015,06,24,09,21,17.50
2015,06,24,09,22,17.50
2015,06,24,09,23,17.40
2015,06,24,09,24,17.40
2015,06,24,09,25,17.40
2015,06,24,09,26,17.40
2015,06,24,09,27,17.40
2015,06,24,09,28,17.50
2015,06,24,09,29,17.50
2015,06,24,09,30,17.50
2015,06,24,09,31,17.50
2015,06,24,09,32,17.50
2015,06,24,09,33,17.50
2015,06,24,09,34,17.60
2015,06,24,09,35,17.60
2015,06,24,09,36,17.70
2015,06,24,09,37,17.70
2015,06,24,09,38,17.80
2015,06,24,09,39,17.80
2015,06,24,09,40,17.90
2015,06,24,09,41,17.90
2015,06,24,09,42,18.00
2015,06,24,09,43,18.10
2015,06,24,09,44,18.10
2015,06,24,09,45,18.30
2015,06,24,09,46,18.30
2015,06,24,09,47,18.40
2015,06,24,09,48,18.50
2015,06,24,09,49,18.60
2015,06,24,09,50,18.60
2015,06,24,09,51,18.70
2015,06,24,09,52,18.80
2015,06,24,09,53,18.80
2015,06,24,09,54,18.90
2015,06,24,09,55,18.90
2015,06,24,09,56,18.90
2015,06,24,09,57,18.90
2015,06,24,09,58,18.90
2015,06,24,09,59,18.90
2015,06,24,10,00,18.90
2015,06,24,10,01,18.90
2015,06,24,10,02,19.10
2015,06,24,10,03,19.20
2015,06,24,10,04,19.20
2015,06,24,10,05,19.20
2015,06,24,10,06,19.20
2015,06,24,10,07,19.20
2015,06,24,10,08,19.20
2015,06,24,10,09,19.20
2015,06,24,10,10,19.20
2015,06,24,10,11,19.20
2015,06,24,10,12,19.20
2015,06,24,10,13,19.20
2015,06,24,10,14,19.30
2015,06,24,10,15,19.30
2015,06,24,10,16,19.40
2015,06,24,10,17,19.50
2015,06,24,10,18,19.50
2015,06,24,10,19,19.50
2015,06,24,10,20,19.50
2015,06,24,10,21,19.60
2015,06,24,10,22,19.60
2015,06,24,10,23,19.60
2015,06,24,10,24,19.60
2015,06,24,10,25,19.50
2015,06,24,10,26,19.40
2015,06,24,10,27,19.30
2015,06,24,10,28,19.20
2015,06,24,10,29,19.10
2015,06,24,10,30,19.10
2015,06,24,10,31,19.00
2015,06,24,10,32,18.80
2015,06,24,10,33,18.70
2015,06,24,10,34,18.70
2015,06,24,10,35,18.60
2015,06,24,10,36,18.60
2015,06,24,10,37,18.50
2015,06,24,10,38,18.50
2015,06,24,10,39,18.40
2015,06,24,10,40,18.40
2015,06,24,10,41,18.40
2015,06,24,10,42,18.30
2015,06,24,10,43,18.20
2015,06,24,10,44,18.20
2015,06,24,10,45,18.10
2015,06,24,10,46,18.10
2015,06,24,10,47,18.10
2015,06,24,10,48,18.10
2015,06,24,10,49,18.10
2015,06,24,10,50,18.00
2015,06,24,10,51,18.00
2015,06,24,10,52,17.90
2015,06,24,10,53,17.80
2015,06,24,10,54,17.70
2015,06,24,10,55,17.60
2015,06,24,10,56,17.40
2015,06,24,10,57,17.30
2015,06,24,10,58,17.20
2015,06,24,10,59,17.20
2015,06,24,11,00,17.10
2015,06,24,11,01,17.10
2015,06,24,11,02,17.10
2015,06,24,11,03,17.00
2015,06,24,11,04,17.00
2015,06,24,11,05,16.90
2015,06,24,11,06,16.90
2015,06,24,11,07,16.80
2015,06,24,11,08,16.80
2015,06,24,11,09,16.70
2015,06,24,11,10,16.70
2015,06,24,11,11,16.70
2015,06,24,11,12,16.80
2015,06,24,11,13,16.80
2015,06,24,11,14,16.80
2015,06,24,11,15,16.80
2015,06,24,11,16,16.80
2015,06,24,11,17,16.80
2015,06,24,11,18,16.80
2015,06,24,11,19,16.80
2015,06,24,11,20,16.80
2015,06,24,11,21,16.80
2015,06,24,11,22,16.70
2015,06,24,11,23,16.70
2015,06,24,11,24,16.60
2015,06,24,11,25,16.60
2015,06,24,11,26,16.60
2015,06,24,11,27,16.60
2015,06,24,11,28,16.60
2015,06,24,11,29,16.60
2015,06,24,11,30,16.60
2015,06,24,11,31,16.60
2015,06,24,11,32,16.60
2015,06,24,11,33,16.70
2015,06,24,11,34,16.60
2015,06,24,11,35,16.60
2015,06,24,11,36,16.60
2015,06,24,11,37,16.60
2015,06,24,11,38,16.60
2015,06,24,11,39,16.60
2015,06,24,11,40,16.60
2015,06,24,11,41,16.60
2015,06,24,11,42,16.60
2015,06,24,11,43,16.50
2015,06,24,11,44,16.50
2015,06,24,11,45,16.50
2015,06,24,11,46,16.50
2015,06,24,11,47,16.50
2015,06,24,11,48,16.40
2015,06,24,11,49,16.40
2015,06,24,11,50,16.30
2015,06,24,11,51,16.30
2015,06,24,11,52,16.30
2015,06,24,11,53,16.30
2015,06,24,11,54,16.40
2015,06,24,11,55,16.40
2015,06,24,11,56,16.50
2015,06,24,11,57,16.60
2015,06,24,11,58,16.70
2015,06,24,11,59,16.70
2015,06,24,12,00,16.70
2015,06,24,12,01,16.80
2015,06,24,12,02,16.80
2015,06,24,12,03,16.80
2015,06,24,12,04,16.90
2015,06,24,12,05,16.90
2015,06,24,12,06,17.00
2015,06,24,12,07,17.00
2015,06,24,12,08,17.10
2015,06,24,12,09,17.10
2015,06,24,12,10,17.20
2015,06,24,12,11,17.20
2015,06,24,12,12,17.30
2015,06,24,12,13,17.30
2015,06,24,12,14,17.40
2015,06,24,12,15,17.50
2015,06,24,12,16,17.50
2015,06,24,12,17,17.60
2015,06,24,12,18,17.70
2015,06,24,12,19,17.70
2015,06,24,12,20,17.80
2015,06,24,12,21,17.90
2015,06,24,12,22,17.90
2015,06,24,12,23,18.00
2015,06,24,12,24,18.10
2015,06,24,12,25,18.10
2015,06,24,12,26,18.20
2015,06,24,12,27,18.20
2015,06,24,12,28,18.20
2015,06,24,12,29,18.30
2015,06,24,12,30,18.30
2015,06,24,12,31,18.30
2015,06,24,12,32,18.40
2015,06,24,12,33,18.40
2015,06,24,12,34,18.40
2015,06,24,12,35,18.40
2015,06,24,12,36,18.40
2015,06,24,12,37,18.40
2015,06,24,12,38,18.30
2015,06,24,12,39,18.30
2015,06,24,12,40,18.30
2015,06,24,12,41,18.30
2015,06,24,12,42,18.30
2015,06,24,12,43,18.20
2015,06,24,12,44,18.10
2015,06,24,12,45,18.00
2015,06,24,12,46,17.90
2015,06,24,12,47,17.90
2015,06,24,12,48,17.80
2015,06,24,12,49,17.80
2015,06,24,12,50,17.80
2015,06,24,12,51,17.90
2015,06,24,12,52,17.90
2015,06,24,12,53,18.00
2015,06,24,12,54,18.00
2015,06,24,12,55,18.10
2015,06,24,12,56,18.10
2015,06,24,12,57,18.20
2015,06,24,12,58,18.20
2015,06,24,12,59,18.30
2015,06,24,13,00,18.30
2015,06,24,13,01,18.30
2015,06,24,13,02,18.20
2015,06,24,13,03,18.20
2015,06,24,13,04,18.10
2015,06,24,13,05,18.10
2015,06,24,13,06,18.10
2015,06,24,13,07,18.10
2015,06,24,13,08,18.10
2015,06,24,13,09,18.10
2015,06,24,13,10,18.10
2015,06,24,13,11,18.10
2015,06,24,13,12,18.10
2015,06,24,13,13,18.10
2015,06,24,13,14,18.00
2015,06,24,13,15,18.00
2015,06,24,13,16,17.90
2015,06,24,13,17,17.90
2015,06,24,13,18,17.90
2015,06,24,13,19,17.90
2015,06,24,13,20,17.90
2015,06,24,13,21,17.90
2015,06,24,13,22,17.90
2015,06,24,13,23,17.90
2015,06,24,13,24,18.00
2015,06,24,13,25,18.00
2015,06,24,13,26,18.10
2015,06,24,13,27,18.10
2015,06,24,13,28,18.10
2015,06,24,13,29,18.20
2015,06,24,13,30,18.30
2015,06,24,13,31,18.30
2015,06,24,13,32,18.40
2015,06,24,13,33,18.40
2015,06,24,13,34,18.40
2015,06,24,13,35,18.50
2015,06,24,13,36,18.50
2015,06,24,13,37,18.50
2015,06,24,13,38,18.60
2015,06,24,13,39,18.70
2015,06,24,13,40,18.80
2015,06,24,13,41,18.90
2015,06,24,13,42,19.00
2015,06,24,13,43,19.10
2015,06,24,13,44,19.10
2015,06,24,13,45,19.20
2015,06,24,13,46,19.30
2015,06,24,13,47,19.30
2015,06,24,13,48,19.40
2015,06,24,13,49,19.50
2015,06,24,13,50,19.50
2015,06,24,13,51,19.60
2015,06,24,13,52,19.70
2015,06,24,13,53,19.70
2015,06,24,13,54,19.80
2015,06,24,13,55,19.80
2015,06,24,13,56,19.90
2015,06,24,13,57,20.00
2015,06,24,13,58,20.10
2015,06,24,13,59,20.10
2015,06,24,14,00,20.20
2015,06,24,14,01,20.20
2015,06,24,14,02,20.20
2015,06,24,14,03,20.20
2015,06,24,14,04,20.20
2015,06,24,14,05,20.20
2015,06,24,14,06,20.20
2015,06,24,14,07,20.20
2015,06,24,14,08,20.30
2015,06,24,14,09,20.30
2015,06,24,14,10,20.50
2015,06,24,14,11,20.50
2015,06,24,14,12,20.60
2015,06,24,14,13,20.70
2015,06,24,14,14,20.80
2015,06,24,14,15,20.90
2015,06,24,14,16,20.90
2015,06,24,14,17,20.90
2015,06,24,14,18,21.00
2015,06,24,14,19,21.00
2015,06,24,14,20,21.10
2015,06,24,14,21,21.10
2015,06,24,14,22,21.10
2015,06,24,14,23,21.10
2015,06,24,14,24,21.10
2015,06,24,14,25,21.10
2015,06,24,14,26,21.10
2015,06,24,14,27,21.20
2015,06,24,14,28,21.20
2015,06,24,14,29,21.20
2015,06,24,14,30,21.30
2015,06,24,14,31,21.40
2015,06,24,14,32,21.50
2015,06,24,14,33,21.50
2015,06,24,14,34,21.60
2015,06,24,14,35,21.60
2015,06,24,14,36,21.70
2015,06,24,14,37,21.70
2015,06,24,14,38,21.80
2015,06,24,14,39,21.90
2015,06,24,14,40,21.90
2015,06,24,14,41,21.90
2015,06,24,14,42,22.00
2015,06,24,14,43,22.00
2015,06,24,14,44,22.00
2015,06,24,14,45,22.00
2015,06,24,14,46,21.90
2015,06,24,14,47,21.90
2015,06,24,14,48,21.90
2015,06,24,14,49,21.90
2015,06,24,14,50,21.90
2015,06,24,14,51,21.80
2015,06,24,14,52,21.90
2015,06,24,14,53,21.90
2015,06,24,14,54,21.90
2015,06,24,14,55,21.90
2015,06,24,14,56,22.00
2015,06,24,14,57,22.00
2015,06,24,14,58,22.00
2015,06,24,14,59,22.00
2015,06,24,15,00,21.90
2015,06,24,15,01,21.80
2015,06,24,15,02,21.80
2015,06,24,15,03,21.80
2015,06,24,15,04,21.70
2015,06,24,15,05,21.50
2015,06,24,15,06,21.40
2015,06,24,15,07,21.30
2015,06,24,15,08,21.10
2015,06,24,15,09,20.90
2015,06,24,15,10,20.80
2015,06,24,15,11,20.70
2015,06,24,15,12,20.60
2015,06,24,15,13,20.60
2015,06,24,15,14,20.50
2015,06,24,15,15,20.50
2015,06,24,15,16,20.40
2015,06,24,15,17,20.20
2015,06,24,15,18,20.10
2015,06,24,15,19,20.10
2015,06,24,15,20,20.10
2015,06,24,15,21,20.00
2015,06,24,15,22,20.00
2015,06,24,15,23,20.00
2015,06,24,15,24,20.10
2015,06,24,15,25,20.10
2015,06,24,15,26,20.20
2015,06,24,15,27,20.20
2015,06,24,15,28,20.20
2015,06,24,15,29,20.20
2015,06,24,15,30,20.20
2015,06,24,15,31,20.10
2015,06,24,15,32,20.10
2015,06,24,15,33,20.10
2015,06,24,15,34,20.20
2015,06,24,15,35,20.20
2015,06,24,15,36,20.30
2015,06,24,15,37,20.30
2015,06,24,15,38,20.40
2015,06,24,15,39,20.50
2015,06,24,15,40,20.60
2015,06,24,15,41,20.80
2015,06,24,15,42,20.80
2015,06,24,15,43,20.80
2015,06,24,15,44,20.90
2015,06,24,15,45,20.90
2015,06,24,15,46,21.00
2015,06,24,15,47,21.10
2015,06,24,15,48,21.20
2015,06,24,15,49,21.30
2015,06,24,15,50,21.40
2015,06,24,15,51,21.60
2015,06,24,15,52,21.60
2015,06,24,15,53,21.70
2015,06,24,15,54,21.80
2015,06,24,15,55,21.80
2015,06,24,15,56,21.80
2015,06,24,15,57,21.90
2015,06,24,15,58,21.90
2015,06,24,15,59,21.90
2015,06,24,16,00,21.90
2015,06,24,16,01,21.90
2015,06,24,16,02,21.80
2015,06,24,16,03,21.60
2015,06,24,16,04,21.60
2015,06,24,16,05,21.50
2015,06,24,16,06,21.40
2015,06,24,16,07,21.40
2015,06,24,16,08,21.40
2015,06,24,16,09,21.40
2015,06,24,16,10,21.40
2015,06,24,16,11,21.30
2015,06,24,16,12,21.30
2015,06,24,16,13,21.30
2015,06,24,16,14,21.20
2015,06,24,16,15,21.20
2015,06,24,16,16,21.30
2015,06,24,16,17,21.30
2015,06,24,16,18,21.30
2015,06,24,16,19,21.40
2015,06,24,16,20,21.40
2015,06,24,16,21,21.30
2015,06,24,16,22,21.30
2015,06,24,16,23,21.20
2015,06,24,16,24,21.10
2015,06,24,16,25,21.10
2015,06,24,16,26,21.00
2015,06,24,16,27,20.90
2015,06,24,16,28,20.90
2015,06,24,16,29,20.90
2015,06,24,16,30,20.90
2015,06,24,16,31,21.00
2015,06,24,16,32,21.00
2015,06,24,16,33,21.10
2015,06,24,16,34,21.20
2015,06,24,16,35,21.20
2015,06,24,16,36,21.20
2015,06,24,16,37,21.20
2015,06,24,16,38,21.30
2015,06,24,16,39,21.20
2015,06,24,16,40,21.20
2015,06,24,16,41,21.30
2015,06,24,16,42,21.30
2015,06,24,16,43,21.30
2015,06,24,16,44,21.30
2015,06,24,16,45,21.30
2015,06,24,16,46,21.40
2015,06,24,16,47,21.40
2015,06,24,16,48,21.40
2015,06,24,16,49,21.40
2015,06,24,16,50,21.40
2015,06,24,16,51,21.40
2015,06,24,16,52,21.40
2015,06,24,16,53,21.40
2015,06,24,16,54,21.40
2015,06,24,16,55,21.40
2015,06,24,16,56,21.50
2015,06,24,16,57,21.50
2015,06,24,16,58,21.50
2015,06,24,16,59,21.40
2015,06,24,17,00,21.40
2015,06,24,17,01,21.40
2015,06,24,17,02,21.40
2015,06,24,17,03,21.30
2015,06,24,17,04,21.30
2015,06,24,17,05,21.30
2015,06,24,17,06,21.30
2015,06,24,17,07,21.30
2015,06,24,17,08,21.30
2015,06,24,17,09,21.30
2015,06,24,17,10,21.30
2015,06,24,17,11,21.30
2015,06,24,17,12,21.30
2015,06,24,17,13,21.30
2015,06,24,17,14,21.30
2015,06,24,17,15,21.30
2015,06,24,17,16,21.40
2015,06,24,17,17,21.40
2015,06,24,17,18,21.40
2015,06,24,17,19,21.40